Location: Demmingen
(48.6757°N, 10.4375°E)
Time: 10:05:17
(UTC+00:00)

Cosmos 2219 Rocket - Pass Details

Date: 23 May 2024
Orbit: 826 x 846 km, 71.0° (Epoch: 15 June)

Event Time Altitude Azimuth Distance (km) Brightness Sun altitude
Rises 01:48:45 0° 333° (NNW) 3,399 5.7 -12.7°
Reaches altitude 10° 01:51:14 10° 336° (NNW) 2,464 5.0 -12.4°
Maximum altitude 01:56:51 65° 59° (ENE) 924 2.7 -11.8°
Drops below altitude 10° 02:02:28 10° 141° (SE) 2,460 4.5 -11.3°
Sets 02:04:56 0° 144° (SE) 3,393 5.2 -11.0°
